SCP
0 0 0 -0 0 0 1 1 2 1 2 2 2 1 1 0 0 0 0 -0 -0 -0 0 0 0 0 0 0 0 0 0 0
0 0 0 0 0 0 1 0 1 1 2 1 1 1 1 1 0 0 0 0 0 0 0 0 0 0 0 0 0 0 0 0
0 0 0 0 0 0 1 1 0 1 2 1 1 1 0 0 0 0 0 0 0 0 0 0 0 0 0 0 0 0 0 0
0 0 0 0 0 0 1 2 1 1 2 1 1 0 0 0 1 1 1 0 0 0 0 0 0 0 0 0 0 0 0 0
0 0 0 0 0 0 3 4 3 1 4 4 3 1 1 1 1 1 0 1 0 0 0 0 0 0 0 0 0 0 0 0
0 0 0 0 0 0 0 3 5 2 3 3 3 3 2 1 1 1 1 0 1 0 1 1 0 0 0 0 0 0 0 0
0 0 0 0 0 0 1 3 4 4 5 7 6 3 4 3 2 3 1 1 1 2 1 1 1 0 1 0 0 0 0 0
0 0 0 0 0 0 0 2 5 3 5 6 7 7 6 4 2 3 2 2 1 2 2 2 1 1 1 0 0 0 0 0
0 0 0 0 0 0 0 1 3 5 8 7 5 6 6 4 3 2 2 2 4 1 1 2 2 1 1 0 0 0 0 0
0 0 0 0 0 0 0 0 1 5 5 5 4 4 5 3 2 2 1 1 1 2 3 2 2 1 1 0 0 0 0 0
0 0 0 0 0 0 0 0 0 3 4 3 3 4 4 5 3 1 1 1 1 1 2 3 2 1 0 0 0 0 0 0
0 0 0 0 0 0 0 0 0 0 0 4 2 1 3 6 4 2 1 1 0 1 2 2 1 1 0 0 1 1 1 0
0 0 0 0 0 0 0 0 0 0 0 0 2 4 2 3 5 5 3 2 5 1 2 2 1 1 0 1 0 0 1 1
0 0 0 0 0 0 0 0 0 0 0 0 0 0 1 2 2 1 1 1 0 1 4 2 1 1 1 1 1 3 2 0
0 0 0 0 0 0 0 0 0 0 0 0 0 0 1 1 1 2 2 1 0 0 0 2 2 1 1 1 1 0 0 0
0 0 0 0 0 0 0 0 0 0 0 0 0 0 0 0 0 0 0 1 0 0 0 0 1 1 0 0 0 0 0 0
0 0 0 0 0 0 0 0 0 0 0 0 0 0 0 0 0 0 0 1 1 2 0 0 0 0 0 0 0 -0 -0 -0
0 0 0 0 0 0 0 0 0 0 0 0 0 0 0 0 0 0 0 0 0 0 1 0 0 0 0 0 0 0 0 0
0 0 0 0 0 0 0 0 0 0 0 0 0 0 0 0 0 0 0 0 0 0 0 0 1 1 0 0 0 0 0 0
0 0 0 0 0 0 0 0 0 0 0 0 0 0 0 0 0 0 0 0 0 0 1 0 1 1 1 1 1 1 1 1
Wind_Speed_500mb
15 6 12 5 32 16 44 38 58 71 73 72 70 69 66 61 56 51 47 43 39 34 30 28 25 23 27 29 29 34 32 29
1 3 5 5 1 18 44 41 39 65 68 64 66 67 68 65 61 54 52 48 44 38 34 29 27 21 17 22 24 25 27 22
19 13 15 22 25 24 27 50 44 49 70 55 46 58 64 65 62 59 56 52 48 43 38 30 23 22 18 17 20 19 17 19
35 34 32 17 27 33 30 50 46 52 62 55 42 39 49 61 61 61 59 56 52 50 43 36 31 25 22 24 28 31 34 34
36 36 43 40 26 24 47 41 40 42 55 39 43 43 37 47 61 59 58 57 54 50 48 43 38 34 33 33 35 40 38 41
48 36 38 33 30 38 41 49 51 46 50 45 42 37 46 44 39 43 47 48 45 49 52 49 42 39 43 48 47 49 50 54
41 36 30 47 46 55 36 36 59 58 51 57 66 48 48 38 55 34 44 42 44 44 44 51 49 44 44 40 47 48 48 49
23 16 39 51 48 52 43 45 43 59 58 57 63 80 64 61 42 51 59 40 42 43 48 52 55 53 52 49 52 58 56 55
14 22 44 45 39 45 53 43 39 54 60 60 68 76 83 79 75 58 53 57 52 50 57 55 54 56 54 50 51 60 56 59
35 39 41 33 32 33 34 32 47 40 58 60 65 69 60 73 75 76 83 63 52 57 61 68 61 59 49 43 45 54 63 60
57 60 49 40 32 27 34 28 29 52 51 58 61 54 54 46 55 57 47 45 48 75 71 70 60 61 60 48 44 52 59 63
63 68 63 53 41 36 36 34 31 27 42 54 63 64 70 63 81 73 65 60 55 52 73 74 61 61 61 51 48 43 54 58
45 67 59 41 35 30 32 25 28 32 29 31 49 60 80 75 67 72 67 54 95 74 53 56 40 54 55 48 52 37 39 52
39 39 41 40 28 30 22 22 20 21 26 31 32 33 38 49 60 60 66 54 63 68 73 67 54 52 57 50 58 56 62 83
47 49 43 36 34 24 20 17 9 11 9 15 20 28 32 36 42 49 59 62 72 79 76 77 77 70 83 87 87 86 84 98
44 45 42 35 27 32 32 22 22 14 14 20 21 28 30 32 36 38 42 57 58 53 68 89 91 97 84 97 98 111 112 110
36 42 38 37 44 43 42 39 35 34 31 31 43 47 44 41 40 35 36 38 46 60 60 55 64 78 73 62 76 76 82 89
31 39 38 45 44 45 41 30 29 31 31 30 34 38 38 39 44 45 45 45 44 54 53 55 58 63 57 53 50 47 75 108
27 32 28 28 33 32 24 17 12 24 33 35 36 38 40 32 37 39 43 47 51 58 61 64 68 68 70 67 70 65 71 80
22 29 36 45 48 49 46 39 36 28 19 26 39 45 47 42 47 45 46 48 49 57 59 64 61 62 65 71 68 64 76 81
Wind_Direction_500mb
125 104 88 317 114 204 196 195 202 199 194 193 193 194 197 200 202 202 200 202 204 208 213 225 235 254 269 277 282 287 291 292
193 231 224 241 88 209 206 203 197 206 206 200 202 200 201 205 205 206 210 208 212 213 224 228 240 250 270 286 279 289 285 283
269 266 271 237 258 203 204 205 198 202 213 205 212 217 211 210 211 211 214 216 219 220 226 234 243 247 258 282 283 285 297 294
268 236 250 221 203 216 203 201 202 194 204 207 214 226 230 222 217 219 219 222 224 228 231 236 243 252 269 279 289 298 303 310
246 245 245 228 205 207 201 189 203 196 193 189 205 215 225 229 226 223 229 230 229 229 231 237 244 253 262 271 276 277 285 292
240 246 243 225 211 216 186 193 196 196 198 209 202 210 219 230 234 228 231 234 237 235 239 241 240 243 244 245 256 262 269 278
216 221 230 224 199 199 203 192 203 197 199 208 211 214 207 218 220 232 242 239 242 242 242 249 251 249 250 253 259 260 267 274
211 232 218 205 199 198 216 216 206 206 206 212 214 216 203 208 206 203 229 234 239 244 252 255 255 254 255 260 261 263 272 285
207 204 202 204 203 211 218 226 219 211 213 217 214 216 214 218 212 214 232 237 242 250 254 253 255 254 257 264 271 270 275 287
204 208 193 198 206 213 233 228 219 215 217 215 215 219 223 225 242 236 232 235 244 249 250 260 260 261 260 272 280 280 283 283
201 205 204 205 215 217 222 231 222 217 223 226 219 217 220 215 215 220 237 242 256 247 255 255 262 257 258 269 276 279 288 297
207 204 208 209 199 200 225 243 245 236 221 225 225 232 226 235 241 244 241 235 263 253 251 252 262 263 262 276 271 273 277 293
222 206 197 180 179 189 208 230 247 246 234 227 226 232 237 236 231 245 243 241 230 260 241 245 250 258 263 277 268 273 285 302
153 156 159 165 184 188 199 229 251 249 237 235 237 235 236 242 237 225 235 241 249 247 245 246 257 270 277 269 272 265 269 290
154 164 166 179 181 195 210 208 224 226 278 278 262 254 250 247 251 239 238 232 236 242 245 252 256 268 275 273 269 264 272 277
163 177 185 195 207 196 198 202 183 196 244 265 268 269 265 261 266 267 261 253 250 253 254 251 252 255 256 267 263 266 273 255
158 180 188 190 192 198 194 204 221 251 271 280 271 271 271 271 267 261 261 263 259 260 258 266 258 252 251 254 266 261 254 254
170 189 174 182 191 187 199 233 250 258 261 273 287 274 271 278 271 267 262 257 253 255 255 253 253 256 252 244 247 248 262 259
167 158 174 193 195 192 199 219 260 270 272 270 273 276 272 272 272 272 272 266 255 246 249 253 252 258 255 248 237 236 238 256
251 239 233 214 217 224 227 224 234 240 255 281 280 277 265 258 270 264 271 274 272 266 255 256 259 257 256 248 245 245 246 248
Wind_Speed_850mb
15 6 12 5 32 16 44 38 58 71 73 72 70 69 66 61 56 51 47 43 39 34 30 28 25 23 27 29 29 34 32 29
1 3 5 5 1 18 44 41 39 65 68 64 66 67 68 65 61 54 52 48 44 38 34 29 27 21 17 22 24 25 27 22
19 13 15 22 25 24 27 50 44 49 70 55 46 58 64 65 62 59 56 52 48 43 38 30 23 22 18 17 20 19 17 19
35 34 32 17 27 33 30 50 46 52 62 55 42 39 49 61 61 61 59 56 52 50 43 36 31 25 22 24 28 31 34 34
36 36 43 40 26 24 47 41 40 42 55 39 43 43 37 47 61 59 58 57 54 50 48 43 38 34 33 33 35 40 38 41
48 36 38 33 30 38 41 49 51 46 50 45 42 37 46 44 39 43 47 48 45 49 52 49 42 39 43 48 47 49 50 54
41 36 30 47 46 55 36 36 59 58 51 57 66 48 48 38 55 34 44 42 44 44 44 51 49 44 44 40 47 48 48 49
23 16 39 51 48 52 43 45 43 59 58 57 63 80 64 61 42 51 59 40 42 43 48 52 55 53 52 49 52 58 56 55
14 22 44 45 39 45 53 43 39 54 60 60 68 76 83 79 75 58 53 57 52 50 57 55 54 56 54 50 51 60 56 59
35 39 41 33 32 33 34 32 47 40 58 60 65 69 60 73 75 76 83 63 52 57 61 68 61 59 49 43 45 54 63 60
57 60 49 40 32 27 34 28 29 52 51 58 61 54 54 46 55 57 47 45 48 75 71 70 60 61 60 48 44 52 59 63
63 68 63 53 41 36 36 34 31 27 42 54 63 64 70 63 81 73 65 60 55 52 73 74 61 61 61 51 48 43 54 58
45 67 59 41 35 30 32 25 28 32 29 31 49 60 80 75 67 72 67 54 95 74 53 56 40 54 55 48 52 37 39 52
39 39 41 40 28 30 22 22 20 21 26 31 32 33 38 49 60 60 66 54 63 68 73 67 54 52 57 50 58 56 62 83
47 49 43 36 34 24 20 17 9 11 9 15 20 28 32 36 42 49 59 62 72 79 76 77 77 70 83 87 87 86 84 98
44 45 42 35 27 32 32 22 22 14 14 20 21 28 30 32 36 38 42 57 58 53 68 89 91 97 84 97 98 111 112 110
36 42 38 37 44 43 42 39 35 34 31 31 43 47 44 41 40 35 36 38 46 60 60 55 64 78 73 62 76 76 82 89
31 39 38 45 44 45 41 30 29 31 31 30 34 38 38 39 44 45 45 45 44 54 53 55 58 63 57 53 50 47 75 108
27 32 28 28 33 32 24 17 12 24 33 35 36 38 40 32 37 39 43 47 51 58 61 64 68 68 70 67 70 65 71 80
22 29 36 45 48 49 46 39 36 28 19 26 39 45 47 42 47 45 46 48 49 57 59 64 61 62 65 71 68 64 76 81
Wind_Direction_850mb
125 104 88 317 114 204 196 195 202 199 194 193 193 194 197 200 202 202 200 202 204 208 213 225 235 254 269 277 282 287 291 292
193 231 224 241 88 209 206 203 197 206 206 200 202 200 201 205 205 206 210 208 212 213 224 228 240 250 270 286 279 289 285 283
269 266 271 237 258 203 204 205 198 202 213 205 212 217 211 210 211 211 214 216 219 220 226 234 243 247 258 282 283 285 297 294
268 236 250 221 203 216 203 201 202 194 204 207 214 226 230 222 217 219 219 222 224 228 231 236 243 252 269 279 289 298 303 310
246 245 245 228 205 207 201 189 203 196 193 189 205 215 225 229 226 223 229 230 229 229 231 237 244 253 262 271 276 277 285 292
240 246 243 225 211 216 186 193 196 196 198 209 202 210 219 230 234 228 231 234 237 235 239 241 240 243 244 245 256 262 269 278
216 221 230 224 199 199 203 192 203 197 199 208 211 214 207 218 220 232 242 239 242 242 242 249 251 249 250 253 259 260 267 274
211 232 218 205 199 198 216 216 206 206 206 212 214 216 203 208 206 203 229 234 239 244 252 255 255 254 255 260 261 263 272 285
207 204 202 204 203 211 218 226 219 211 213 217 214 216 214 218 212 214 232 237 242 250 254 253 255 254 257 264 271 270 275 287
204 208 193 198 206 213 233 228 219 215 217 215 215 219 223 225 242 236 232 235 244 249 250 260 260 261 260 272 280 280 283 283
201 205 204 205 215 217 222 231 222 217 223 226 219 217 220 215 215 220 237 242 256 247 255 255 262 257 258 269 276 279 288 297
207 204 208 209 199 200 225 243 245 236 221 225 225 232 226 235 241 244 241 235 263 253 251 252 262 263 262 276 271 273 277 293
222 206 197 180 179 189 208 230 247 246 234 227 226 232 237 236 231 245 243 241 230 260 241 245 250 258 263 277 268 273 285 302
153 156 159 165 184 188 199 229 251 249 237 235 237 235 236 242 237 225 235 241 249 247 245 246 257 270 277 269 272 265 269 290
154 164 166 179 181 195 210 208 224 226 278 278 262 254 250 247 251 239 238 232 236 242 245 252 256 268 275 273 269 264 272 277
163 177 185 195 207 196 198 202 183 196 244 265 268 269 265 261 266 267 261 253 250 253 254 251 252 255 256 267 263 266 273 255
158 180 188 190 192 198 194 204 221 251 271 280 271 271 271 271 267 261 261 263 259 260 258 266 258 252 251 254 266 261 254 254
170 189 174 182 191 187 199 233 250 258 261 273 287 274 271 278 271 267 262 257 253 255 255 253 253 256 252 244 247 248 262 259
167 158 174 193 195 192 199 219 260 270 272 270 273 276 272 272 272 272 272 266 255 246 249 253 252 258 255 248 237 236 238 256
251 239 233 214 217 224 227 224 234 240 255 281 280 277 265 258 270 264 271 274 272 266 255 256 259 257 256 248 245 245 246 248